Location: Unspecified
(44.4377°N, 88.0525°W)
Time: 05:53:24
(UTC-05:00)

Resurs 1-4 Rocket - Visible Passes

Search period start: 03 September 2015 00:00
Search period end: 13 September 2015 00:00
Orbit: 799 x 815 km, 98.4° (Epoch: 01 September)

Date Brightness Start Highest point End Pass type
(mag) Time Alt. Az. Time Alt. Az. Time Alt. Az.
03 Sep 4.2 03:09:24 10° NE 03:13:14 21° E 03:16:21 13° SE visible
03 Sep 2.3 04:48:21 10° N 04:53:30 55° WNW 04:57:26 17° SW visible
04 Sep 4.7 02:46:24 10° ENE 02:48:20 12° E 02:50:36 10° ESE visible
04 Sep 2.0 04:23:44 10° NNE 04:29:03 88° WNW 04:32:33 22° SSW visible
05 Sep 2.6 03:59:18 10° NNE 04:04:31 57° E 04:07:40 24° S visible
05 Sep 3.4 05:40:03 10° NNW 05:44:02 22° WNW 05:47:53 10° WSW visible
06 Sep 3.4 03:35:05 10° NNE 03:39:53 35° E 03:42:47 21° SSE visible
06 Sep 2.9 05:15:01 10° N 05:19:44 33° WNW 05:23:51 13° SW visible
07 Sep 4.2 03:11:11 10° NE 03:15:08 22° E 03:17:53 15° SE visible
07 Sep 2.3 04:50:13 10° N 04:55:22 52° WNW 04:58:58 19° SW visible
08 Sep 4.7 02:48:01 10° ENE 02:50:15 13° E 02:52:47 10° ESE visible
08 Sep 2.0 04:25:36 10° NNE 04:30:55 85° WNW 04:34:05 25° SSW visible
09 Sep 2.5 04:01:09 10° NNE 04:06:23 60° E 04:09:12 27° S visible
09 Sep 3.5 05:41:58 10° NNW 05:45:52 21° WNW 05:49:38 10° WSW visible
10 Sep 3.4 03:36:55 10° NNE 03:41:46 37° E 03:44:18 24° SE visible
10 Sep 2.9 05:16:55 10° N 05:21:35 32° WNW 05:25:23 14° WSW visible
11 Sep 4.1 03:12:58 10° NE 03:17:01 23° E 03:19:25 17° SE visible
11 Sep 2.3 04:52:06 10° N 04:57:13 50° WNW 05:00:30 21° SW visible
12 Sep 4.6 02:49:41 10° ENE 02:52:10 14° E 02:54:31 11° ESE visible
12 Sep 2.0 04:27:28 10° NNE 04:32:47 81° WNW 04:35:36 29° SSW visible
